Shelbyville, IN

2:28 AM EST on February 22, 2018 (GMT -0500)
Shelbyville Municipal

Weather History for KGEZ - November, 2013

Change the Weather History Date:

Monday, November 4, 2013

  Actual Average Record
Temperature  
Mean Temperature 49 °F 48 °F  
Max Temperature 56 °F 59 °F 79 °F (2003)
Min Temperature 42 °F 38 °F 26 °F (1999)
Degree Days  
Heating Degree Days 16 17  
Month to date heating degree days 61 65  
Since 1 July heating degree days 406 500  
Cooling Degree Days 0 0  
Month to date cooling degree days 0 0  
Year to date cooling degree days 1179 913  
Moisture  
Dew Point 37 °F    
Average Humidity 63    
Maximum Humidity 76    
Minimum Humidity 50    
Precipitation  
Precipitation 0.00 in 0.14 in 0.28 in (2014)
Month to date precipitation 0.01 0.54  
Year to date precipitation 27.73 37.10  
Sea Level Pressure  
Sea Level Pressure 30.32 in    
Wind  
Wind Speed 10 mph (SSE)    
Max Wind Speed 17 mph    
Max Gust Speed 21 mph    
Visibility 10 miles    
Events      
T = Trace of Precipitation, MM = Missing Value Source: NWS Daily Summary

Daily Weather History Graph

Daily Weather History Graph

Search for Another Location

Airport or City:

Trip Planner

Search our weather history database for the weather conditions in past years. The results will help you decide how hot, cold, wet, or windy it might be!

Date:

Astronomy

Nov. 04, 2013 Rise Set
Actual Time 7:15 AM EST 5:37 PM EST
Civil Twilight 6:47 AM EST 6:05 PM EST
Nautical Twilight 6:15 AM EST 6:37 PM EST
Astronomical Twilight 5:43 AM EST 7:09 PM EST
Moon 8:24 AM EST (11/4) 6:42 PM EST (11/4)
Length of Visible Light 11h 18m
Length of Day
10h 22m
New Moon, 2% of the Moon is Illuminated
Nov 4
New Moon
Nov 10
First Quarter
Nov 17
Full
Nov 25
Last Quarter
Dec 2
New

Hourly Weather History & Observations

Time (EST) Temp. Windchill Dew Point Humidity Pressure Visibility Wind Dir Wind Speed Gust Speed Precip Events Conditions
12:53 AM 43.0 °F 36.8 °F 34.0 °F 71% 30.32 in 10.0 mi ESE 11.5 mph - N/A   Clear
1:53 AM 45.0 °F 39.7 °F 35.1 °F 68% 30.33 in 10.0 mi ESE 10.4 mph - N/A   Clear
2:53 AM 45.0 °F 41.2 °F 35.1 °F 68% 30.34 in 10.0 mi SE 6.9 mph - N/A   Clear
3:53 AM 45.0 °F 40.6 °F 35.1 °F 68% 30.35 in 10.0 mi ESE 8.1 mph - N/A   Clear
4:53 AM 43.0 °F 38.8 °F 36.0 °F 76% 30.35 in 10.0 mi East 6.9 mph - N/A   Clear
5:53 AM 42.1 °F 36.6 °F 35.1 °F 76% 30.35 in 10.0 mi ESE 9.2 mph - N/A   Clear
6:53 AM 42.1 °F 36.6 °F 34.0 °F 73% 30.35 in 10.0 mi ESE 9.2 mph - N/A   Clear
7:53 AM 43.0 °F 37.2 °F 34.0 °F 71% 30.35 in 10.0 mi ESE 10.4 mph - N/A   Clear
8:53 AM 45.0 °F 39.7 °F 35.1 °F 68% 30.37 in 10.0 mi SE 10.4 mph - N/A   Clear
9:53 AM 48.0 °F - 35.1 °F 61% 30.35 in 10.0 mi SSE 13.8 mph - N/A   Clear
10:53 AM 51.1 °F - 36.0 °F 56% 30.35 in 10.0 mi SSE 15.0 mph - N/A   Clear
11:53 AM 54.0 °F - 36.0 °F 51% 30.33 in 10.0 mi SSE 11.5 mph - N/A   Clear
12:53 PM 55.0 °F - 37.9 °F 53% 30.31 in 10.0 mi South 10.4 mph - N/A   Clear
1:53 PM 55.9 °F - 37.9 °F 51% 30.28 in 10.0 mi South 10.4 mph - N/A   Clear
2:53 PM 55.9 °F - 39.0 °F 53% 30.30 in 10.0 mi South 9.2 mph - N/A   Clear
3:53 PM 55.9 °F - 39.9 °F 55% 30.29 in 10.0 mi South 10.4 mph - N/A   Clear
4:53 PM 55.9 °F - 41.0 °F 57% 30.29 in 10.0 mi SSE 10.4 mph - N/A   Partly Cloudy
5:53 PM 54.0 °F - 41.0 °F 62% 30.29 in 10.0 mi SSE 9.2 mph - N/A   Clear
6:53 PM 54.0 °F - 41.0 °F 62% 30.30 in 10.0 mi SSE 8.1 mph - N/A   Clear
7:53 PM 54.0 °F - 41.0 °F 62% 30.30 in 10.0 mi SSE 10.4 mph - N/A   Clear
8:53 PM 54.0 °F - 41.0 °F 62% 30.30 in 10.0 mi South 9.2 mph - N/A   Clear
9:53 PM 53.1 °F - 39.9 °F 61% 30.32 in 10.0 mi South 6.9 mph - N/A   Clear
10:53 PM 53.1 °F - 39.9 °F 61% 30.32 in 10.0 mi South 9.2 mph - N/A   Partly Cloudy
11:53 PM 51.1 °F - 39.9 °F 66% 30.32 in 10.0 mi South 5.8 mph - N/A   Clear